Tracking 19717 objects as of 25-Jun-2019
HD Live streaming from Space Station
objects crossing your sky now

GLOBALSTAR M029

Track GLOBALSTAR M029 now!
10-day predictions
GLOBALSTAR M029 is classified as:


NORAD ID: 25963
Int'l Code: 1999-062C
Perigee: 1,686.3 km
Apogee: 1,691.2 km
Inclination: 52.0 °
Period: 120.0 minutes
Semi major axis: 8059 km
RCS: 2.8434 m2 (large)
Launch date: November 22, 1999
Source: Globalstar (GLOB)
Launch site: TYURATAM MISSILE AND SPACE COMPLEX (TTMTR)
aabbcc
Your satellite tracking list
Your tracking list is empty




NASA's NSSDC Master Catalog

Two Line Element Set (TLE):
1 25963U 99062C   19176.51615573 -.00000078  00000-0  10685-3 0  9997
2 25963  51.9793 244.2211 0003048 150.4619 312.7544 11.99838416907044
Source of the keplerian elements: AFSPC